Regional Weather Roundup
Issued by NWS Wakefield, VA

Home | Current Version | Previous Version | Graphics & Text | Print | Product List | Glossary On
Versions: 1 2 3 4 5 6 7 8 9 10 11 12 13 14 15 16 17 18 19 20 21 22 23 24 25 26 27 28 29 30 31 32 33 34 35 36 37 38 39 40 41 42 43 44 45 46 47 48 49 50
932
ASUS41 KAKQ 171815
RWRAKQ

REGIONAL WEATHER ROUNDUP
NATIONAL WEATHER SERVICE WAKEFIELD VA
100 PM EST TUE JAN 17 2017

Note: "fair" indicates few or no clouds below 12,000 feet with no
significant weather and/or obstructions to visibility. * = Denotes
station may not report precipitation (e.g., rain,snow,etc.),
thunder or fog.

VAZ042-051-052>054-056-171900-
NORTHERN VIRGINIA

CITY           SKY/WX    TMP DP  RH WIND       PRES   REMARKS
WASH NATIONAL  LGT RAIN  47  45  93 SW14      30.09F
DULLES         LGT RAIN  45  43  93 S6        30.07F FOG
FORT BELVOIR   LGT RAIN  46  43  90 VRB6      30.08F
QUANTICO       LGT RAIN  44  44 100 S3        30.09F FOG
FREDERICKSBRG* CLOUDY    51  51 100 S7        30.06F
STAFFORD*      LGT RAIN  47  47 100 CALM      30.11F
WARRENTON      LGT RAIN  47  44  87 S6        30.05F
CULPEPER*      LGT RAIN  46  45  96 S3        30.06F
MANASSAS*      LGT RAIN N/A N/A N/A S6          N/A
LEESBURG*      LGT RAIN  45  45 100 MISG      30.06F
WINCHESTER     CLOUDY    45  43  93 CALM      30.01F FOG
FRONT ROYAL*   CLOUDY    46  46 100 N5        29.99F
LURAY*         LGT RAIN  54  54 100 SW8       30.00F
$$

VAZ048-049-060>072-079>083-171900-
CENTRAL AND SOUTH CENTRAL VIRGINIA

CITY           SKY/WX    TMP DP  RH WIND       PRES   REMARKS
RICHMOND       CLOUDY    57  51  80 SW12      30.10F
CHESTERFIELD*  MOCLDY    57  39  51 SW8       30.12F
PETERSBURG*    LGT RAIN  57  50  77 S9        30.12F
HANOVER        CLOUDY    55  48  77 SW9       30.11F
TAPPAHANNOCK*  CLOUDY    55  49  78 S10G16    30.11F
QUINTON*       CLOUDY    56  50  80 S12G18    30.11F
CHARLOTTSVILLE LGT RAIN  47  45  93 S6        30.06F FOG
GORDONSVILLE*  CLOUDY    46  46  99 SW7       30.06F FOG
ORANGE*        LGT RAIN  48  48 100 CALM      30.08F
LOUISA*        LGT RAIN  54  52  94 S7        30.06F
BUMPASS*       CLOUDY    50  50 100 SW7       30.08F
FARMVILLE*     LGT RAIN  54  53  96 SW7       30.09F
CREWE*         CLOUDY    56  56 100 SW10G20   30.10F
FORT PICKETT*  CLOUDY    56  51  86 S10       30.12F
CHASE CITY*    CLOUDY    54  52  95 S3        30.12F
CLARKSVILLE*   CLOUDY    54  54 100 S5        30.14F
SOUTH HILL*    CLOUDY    55  51  87 SW9G16    30.20F
LAWRENCEVILLE* CLOUDY    54  51  90 SW8       30.15F
EMPORIA*       CLOUDY    52  50  93 S3        30.16F
$$

VAZ088>098-171900-
SOUTHEAST VIRGINIA

CITY           SKY/WX    TMP DP  RH WIND       PRES   REMARKS
NORFOLK        CLOUDY    58  50  75 SW12      30.14F
VIRGINIA BEACH CLOUDY    56  49  77 SW9       30.14F
NORFOLK NAVAL  CLOUDY    56  49  77 SW12      30.16F
WEST POINT*    CLOUDY    55  48  76 S7        30.13F
SALUDA*        MOCLDY    55  49  82 S8        30.11F
NEWPORT NEWS   CLOUDY    56  50  80 SW13      30.14F
LANGLEY AFB    PTSUNNY   55  51  85 SW12      30.13F
FORT EUSTIS    PTSUNNY   56  49  79 SW6       30.12F
WILLIAMSBURG*  MOSUNNY   59  52  77 SW7       30.14F
HR EXEC AP*    CLOUDY    57  50  77 SW9       30.14F
FRANKLIN*      CLOUDY    55  50  83 SW8       30.16F
US460-WAKEFLD  CLOUDY    56  51  84 SW9       30.14F
$$

VAZ020-022-025-037-045-171900-
WEST CENTRAL AND SOUTHWEST VIRGINIA

CITY           SKY/WX    TMP DP  RH WIND       PRES   REMARKS
STAUNTON*      RAIN      56  52  88 SW7       30.04F
WAYNESBORO*    CLOUDY    54  52  93 CALM      30.03F
HOT SPRINGS VA CLOUDY    52  52 100 SW18G29   30.03F
LYNCHBURG      CLOUDY    50  49  96 SW9       30.09F FOG
DANVILLE       CLOUDY    55  55 100 VRB6      30.12F
SOUTH BOSTON*  CLOUDY    55  54  96 S5        30.12F
MARTINSVILLE   CLOUDY    51  49  95 CALM      30.15F FOG
ROANOKE        CLOUDY    49  47  93 E5        30.10F
BLACKSBURG     CLOUDY    51  51 100 CALM      30.12F
DUBLIN*        CLOUDY    53  53 100 SW5       30.10F
MARION*        DRIZZLE   52  51  95 CALM      30.12F
HILLSVILLE*    CLOUDY    52  50  93 CALM      30.10F
RICHLANDS*     LGT RAIN N/A N/A N/A SW10G21   30.08F
WISE*          RAIN      55  55 100 SW20G30   30.07F
ABINGDON*      DRIZZLE   57  55  92 W7        30.10F
$$

MDZ021>025-VAZ099-100-171900-
SOUTHERN MARYLAND AND THE DELMARVA PENINSULA

CITY           SKY/WX    TMP DP  RH WIND       PRES   REMARKS
PATUXENT RIVER CLOUDY    45  44  97 E5        30.09F FOG
BAY BRIDGE APT CLOUDY    45  43  93 S7        30.09F FOG
LEONARDTOWN    CLOUDY    46  45  93 S6        30.09F
DOVER          CLOUDY    46  46 100 VRB3      30.08F
GEORGETOWN     CLOUDY    46  44  93 SE8       30.10F FOG
EASTON         CLOUDY    48  45  87 S8        30.13F FOG
CAMBRIDGE      CLOUDY    45  43  93 S10       30.09F
SALISBURY      CLOUDY    46  45  96 SE5       30.10F FOG
OCEAN CITY     CLOUDY    44  44 100 S6        30.13F
WALLOPS ISLAND CLOUDY    47  45  93 S12       30.14F
ACCOMACK*      CLOUDY    52  47  83 S6        30.14F
$$

NCZ012>017-030>032-171900-
NORTH CENTRAL AND EASTERN NORTH CAROLINA

CITY           SKY/WX    TMP DP  RH WIND       PRES   REMARKS
ROANOKE RAPIDS CLOUDY    57  54  88 SW13G20   30.17F
RALEIGH        CLOUDY    57  52  83 SW13      30.18F
ELIZABETH CITY CLOUDY    54  50  86 S8        30.18F
AHOSKIE*       CLOUDY    57  52  84 SW3       30.17F
EDENTON*       CLOUDY    60  53  75 CALM      30.19F
CURRITUCK*     PTSUNNY   57  50  76 S6        30.18F
KILL DEVIL HLS NOT AVBL
MANTEO         MOSUNNY   56  51  82 SW7       30.20F
CAPE HATTERAS  PTSUNNY   57  49  74 S3        30.20F
TARBORO*       NOT AVBL
GOLDSBORO      NOT AVBL
WASHINGTON     CLOUDY    59  52  76 SW7       30.20F
GREENVILLE     CLOUDY    57  52  82 SW7       30.20F
NEW BERN       CLOUDY    66  54  65 SW7       30.21F
WILMINGTON     MOSUNNY   70  58  65 W9        30.21F
$$

VAZ048-171900-
ELSEWHERE

CITY           SKY/WX    TMP DP  RH WIND       PRES   REMARKS
HARRISBURG PA  CLOUDY    38  37  97 S3        30.05F FOG
BALTIMORE      CLOUDY    44  44 100 VRB3      30.07F FOG
ANNAPOLIS      CLOUDY    45  42  89 S9        30.09F FOG
ANDREWS AFB    LGT RAIN  46  45  93 S7        30.07F
PHILADELPHIA   CLOUDY    42  38  85 SE6       30.11F FOG
HENDERSON NC   PTSUNNY   55  48  79 S9        30.16F
GREENSBORO     CLOUDY    58  53  84 S10       30.13F
ROCKY MOUNT    CLOUDY    57  54  89 S8        30.19F
$$

VAZ100-171900-
MARINE

STATION/POSITION TIME  TEMP    WIND        PRES    WAVE   SWELL
                       AIR SEA DIR/SP/G            HT/PER HT/PER
                 (UTC) (F)     (DEG/KT/KT) (MB)    (FT/S) (FT/S)
CAPE MAY NJ      1748   43 40  140/  9/ 11 1019.0F
LEWES DE         1748          160/  8/ 11 1019.2F
OCEAN-CITY-INLET 1748          190/  5/  8 1020.6F
WACHAPREAGUE VA  1748   47 44  210/  8/ 11 1020.9F
THOMAS POINT MD  1800   41 39  190/  8/  8   N/A
GOOSES REEF MD   1800   41     180/ 14/ 16 1019.5    1/ 2
COVE POINT MD    1748   40     190/ 12/ 14 1019.9F
SOLOMONS ISLAND  1748          110/  4/  6   N/A
BISHOPS HEAD MD  1748   41 42  160/ 10/ 12 1019.7F
PINEY POINT MD   1748          140/  6/  6   N/A
POTOMAC MD       1800   42 40  160/  8/ 10 1018.2    1/ 2
CAMBRIDGE MD     1748   46 38  160/  5/  9 1018.3F
LEWISETTA VA     1742   52 43  220/  6/  7 1018.8F
RAPPAHANNOCK LGT 1748          170/ 14/ 14 1020.8F
STINGRAY PT      1750   44     180/ 10/ 12 1020.2F
YORK RVR RNG VA  1742   50     230/ 12/ 15 1019.6F
YORKTOWN VA      1742   54 42  230/ 11/ 19 1019.9F
JAMESTOWN VA     1800   54 44  210/  8/ 14   N/A
DOMINION TERM VA 1742   50     220/ 10/ 11 1021.0F
KIPTOPEKE VA     1748          180/  7/  8   N/A
CHES BAY BRIDGE  1742   51 42  230/ 12/ 14 1020.7F
CAPE HENRY VA    1742   55     220/  8/ 11   N/A
WILLOUBY STN VA  1742   49     250/  8/  9 1021.6F
S CRANEY ISL VA  1742   53     220/  9/ 14 1020.9F
CAPE HENRY BUOY  1742      47                N/A     2/ 9
OFFSHORE WE BUOY 1751      49                N/A     2/ 9
64NM E OF VA BCH 1750   54 57  210/  6/  8 1021.3F   2/10   2/10
DUCK PIER NC     1742   52 44  190/  8/  9 1021.4F
44100 DUCK FRF   1735      47                N/A     2/ 9
44056 DUCK FRF   1730      45                N/A     2/ 9
OREGON INLET NC  1742   55 48  140/  5/  6 1022.3F
HATTERAS NC      1748          360/  3/  4 1022.4F
DIAMOND SHLS NC  1750   59 73  350/  4/  6 1022.8F   2/ 8   2/ 8
CAPE LOOKOUT NC  1700   58      40/  5/  6 1023.0F
$$




USA.gov is the U.S. government's official web portal to all federal, state and local government web resources and services.